This is the latest recevied weather packets stored in our database for station/object AA1FF. If no packets are shown the sender has not sent any weather packets the latest 10 day(s).
| Time | Temp. | Humidity | Pressure | Rain* | Wind** | Luminosity | Snow |
|---|---|---|---|---|---|---|---|
| 1777828724 | 11.11° C | 43% | 1007 hPa | 0 mm | - | 648 W/m² | - |
| 1777828423 | 10.56° C | 43% | 1007 hPa | 0 mm | - | 454 W/m² | - |
| 1777828123 | 10.56° C | 45% | 1007 hPa | 0 mm | - | 486 W/m² | - |
| 1777827823 | 10.56° C | 44% | 1007 hPa | 0 mm | - | 430 W/m² | - |
| 1777827523 | 10.56° C | 44% | 1007 hPa | 0 mm | - | 381 W/m² | - |
| 1777827223 | 10.56° C | 44% | 1007 hPa | 0 mm | - | 322 W/m² | - |
| 1777826923 | 10.56° C | 44% | 1007 hPa | 0 mm | - | 343 W/m² | - |
| 1777826623 | 11.11° C | 43% | 1007 hPa | 0 mm | - | 396 W/m² | - |
| 1777826323 | 11.11° C | 44% | 1007 hPa | 0 mm | - | 712 W/m² | - |
| 1777826023 | 10.56° C | 45% | 1007 hPa | 0 mm | - | 637 W/m² | - |
| 1777825724 | 10.56° C | 45% | 1007 hPa | 0 mm | - | 560 W/m² | - |
| 1777825423 | 10.56° C | 46% | 1007 hPa | 0 mm | - | 470 W/m² | - |
| 1777825124 | 10.56° C | 47% | 1007 hPa | 0 mm | - | 504 W/m² | - |
| 1777824824 | 10.56° C | 46% | 1007 hPa | 0 mm | - | 447 W/m² | - |
| 1777824523 | 10° C | 47% | 1007 hPa | 0 mm | - | 488 W/m² | - |
| 1777824223 | 10° C | 49% | 1007 hPa | 0 mm | - | 916 W/m² | - |
| 1777823923 | 10° C | 48% | 1007 hPa | 0 mm | - | 416 W/m² | - |
| 1777823625 | 9.44° C | 46% | 1007 hPa | 0 mm | - | 495 W/m² | - |
| 1777823324 | 9.44° C | 48% | 1007 hPa | 0 mm | - | 436 W/m² | - |
| 1777823023 | 9.44° C | 48% | 1007 hPa | 0 mm | - | 408 W/m² | - |
| 1777822724 | 9.44° C | 52% | 1007 hPa | 0 mm | - | 424 W/m² | - |
| 1777822424 | 8.89° C | 51% | 1007 hPa | 0 mm | - | 416 W/m² | - |
| 1777822125 | 8.89° C | 54% | 1007 hPa | 0 mm | - | 364 W/m² | - |
| 1777821823 | 8.33° C | 55% | 1007 hPa | 0 mm | - | 351 W/m² | - |
| 1777821525 | 8.33° C | 55% | 1007 hPa | 0 mm | - | 297 W/m² | - |
* Rain latest hour (hover to see other rain measurements)
** Current wind speed in m/s (hover to see current wind gust speed)